Location: Plymouth
(43.7570°N, 71.6890°W)
Time: 21:25:29
(UTC-04:00)

Amateur Radio Satellites - All Passes

Search period start: 23 April 2017 20:55
Search period end: 24 April 2017 20:55
Location: Plymouth, 43.7570°N, 71.6890°W

Satellite Date Start Highest point End Downlink Frequencies (MHz)
Time Altitude Azimuth
AO-73 23 Apr 21:01:00 21:05:08 57° 260° (W) 21:09:15 145.935
AAUSAT CUBESAT 2 23 Apr 21:11:59 21:15:06 21° 267° (W) 21:18:16 437.432
Oscar 11 23 Apr 21:20:55 21:25:00 42° 262° (W) 21:29:06 .
O/OREOS (USA 219) 23 Apr 21:22:21 21:26:48 50° 252° (WSW) 21:31:13 437.305
UWE-3 23 Apr 21:26:29 21:29:21 17° 268° (W) 21:32:12 435.000/436.395/437.385
PRISM 23 Apr 21:31:23 21:33:47 15° 91° (E) 21:36:10 437.425
NO-84 23 Apr 21:42:23 21:45:48 50° 325° (NW) 21:48:57 435.350 FM
BEESAT 3 23 Apr 21:45:16 21:46:54 12° 35° (NE) 21:48:32 437.485
STRAND 1 23 Apr 21:48:31 21:51:56 18° 299° (WNW) 21:55:20 437.568
LO-87 23 Apr 22:06:07 22:08:48 20° 67° (ENE) 22:11:30 145.935 - 145.965
ESTCUBE 1 23 Apr 22:13:52 22:16:53 18° 63° (ENE) 22:19:54 437.505/2401.250
TIGRISAT 23 Apr 22:15:48 22:19:23 26° 95° (E) 22:23:01 435.000
OBJECT BX 23 Apr 22:23:49 22:27:04 31° 263° (W) 22:30:20 145.990 - 145.960
AO-85 23 Apr 22:24:51 22:28:50 79° 235° (SW) 22:32:56 145.980
DELFI C3 23 Apr 22:26:32 22:29:51 25° 265° (W) 22:33:12 145.870
UNISAT 6 23 Apr 22:35:36 22:39:44 46° 99° (E) 22:43:53 437.425
VELOX 1 23 Apr 22:43:56 22:45:09 11° 59° (ENE) 22:46:21 145.980
PRISM 23 Apr 23:05:19 23:09:21 49° 288° (WNW) 23:13:20 437.425
BEESAT 2 23 Apr 23:12:37 23:16:07 27° 45° (NE) 23:19:35 435.950
FO-29 23 Apr 23:13:31 23:18:43 75° 103° (ESE) 23:24:07 435.910
BEESAT 3 23 Apr 23:21:11 23:25:14 73° 55° (NE) 23:29:13 437.485
NO-84 23 Apr 23:22:04 23:23:52 14° 344° (NNW) 23:25:37 435.350 FM
POLYITAN 1 23 Apr 23:29:58 23:32:04 13° 91° (E) 23:34:09 437.675
QB50P2 23 Apr 23:35:49 23:38:36 17° 92° (E) 23:41:22 145.880/145.840
LO-87 23 Apr 23:38:53 23:42:05 28° 264° (W) 23:45:17 145.935 - 145.965
DX 1 23 Apr 23:44:45 23:47:45 18° 63° (ENE) 23:50:46 434.975-435.025
ESTCUBE 1 23 Apr 23:48:54 23:53:17 51° 260° (W) 23:57:43 437.505/2401.250
TIGRISAT 23 Apr 23:52:24 23:56:03 29° 292° (WNW) 23:59:44 435.000
NANOSAT C BR1 24 Apr 00:00:35 00:04:07 26° 95° (E) 00:07:38 145.865
AIST 2D 24 Apr 00:01:15 00:04:44 58° 100° (E) 00:08:12 435.315
SPROUT 24 Apr 00:08:20 00:12:35 69° 75° (ENE) 00:16:51 437.525
UNISAT 6 24 Apr 00:13:17 00:16:06 17° 296° (WNW) 00:18:56 437.425
VELOX 1 24 Apr 00:16:25 00:20:53 88° 254° (WSW) 00:25:23 145.980
EO-79 24 Apr 00:25:48 00:29:56 55° 101° (E) 00:34:02 145.935-145.965
DUCHIFAT 1 24 Apr 00:31:50 00:35:55 52° 101° (E) 00:39:59 145.980
50 SAT 24 Apr 00:34:00 00:37:28 89° 73° (ENE) 00:41:00 437.505
BEESAT 2 24 Apr 00:50:13 00:53:56 34° 244° (WSW) 00:57:35 435.950
UKube-1 24 Apr 00:53:02 00:57:18 63° 73° (ENE) 01:01:36 .
FO-29 24 Apr 01:00:23 01:03:15 15° 301° (WNW) 01:06:10 435.910
BEESAT 3 24 Apr 01:01:02 01:02:13 11° 252° (WSW) 01:03:23 437.485
NO-84 24 Apr 01:01:41 01:02:30 11° 6° (N) 01:03:18 435.350 FM
POLYITAN 1 24 Apr 01:04:05 01:08:12 55° 287° (WNW) 01:12:17 437.675
QB50P2 24 Apr 01:10:37 01:14:36 43° 289° (WNW) 01:18:34 145.880/145.840
ITUPSAT 1 24 Apr 01:12:40 01:13:06 10° 56° (ENE) 01:13:31 437.325
DX 1 24 Apr 01:19:21 01:23:35 47° 260° (W) 01:27:50 434.975-435.025
NANOSAT C BR1 24 Apr 01:36:13 01:39:48 28° 292° (WNW) 01:43:20 145.865
BUGSAT 1 24 Apr 01:47:03 01:51:03 69° 286° (WNW) 01:55:01 437.445
Gurwin Techsat 1B 24 Apr 01:47:31 01:51:40 23° 93° (E) 01:55:47 435.225
SPROUT 24 Apr 01:47:41 01:48:57 11° 271° (W) 01:50:13 437.525
EO-79 24 Apr 02:02:53 02:05:15 15° 297° (WNW) 02:07:36 145.935-145.965
BEESAT 24 Apr 02:07:30 02:11:45 34° 68° (ENE) 02:16:02 436.000
DUCHIFAT 1 24 Apr 02:08:44 02:11:10 15° 297° (WNW) 02:13:36 145.980
Oscar 19 24 Apr 02:11:14 02:16:25 62° 101° (ESE) 02:21:33 437.125/150
MOZHAYETS 4 24 Apr 02:29:56 02:33:40 26° 66° (ENE) 02:37:25
UKube-1 24 Apr 02:31:51 02:33:45 13° 270° (W) 02:35:38 .
PCSat 24 Apr 02:37:06 02:41:59 36° 111° (ESE) 02:46:54 145.827
NO-84 24 Apr 02:38:20 02:40:52 26° 27° (NNE) 02:43:20 435.350 FM
ITUPSAT 1 24 Apr 02:45:20 02:50:04 77° 75° (ENE) 02:54:51 437.325
YUBILEINY 24 Apr 02:52:36 02:55:21 12° 71° (ENE) 02:58:06 435.215
KKS-1 24 Apr 03:07:19 03:09:21 13° 60° (ENE) 03:11:23 437.445
CUBESAT XI-V 24 Apr 03:13:51 03:16:16 14° 61° (ENE) 03:18:41 437.345
AO-7 24 Apr 03:16:04 03:22:43 26° 93° (E) 03:29:19 .
Gurwin Techsat 1B 24 Apr 03:26:44 03:31:51 49° 290° (WNW) 03:36:57 435.225
ITAMSAT 1 24 Apr 03:30:24 03:34:57 30° 96° (E) 03:39:29 435.822/435.867
BEESAT 24 Apr 03:45:30 03:49:32 28° 264° (W) 03:53:37 436.000
STARS 24 Apr 03:47:30 03:49:58 15° 61° (ENE) 03:52:25 437.465
Oscar 19 24 Apr 03:51:38 03:55:14 19° 299° (WNW) 03:58:51 437.125/150
MOZHAYETS 4 24 Apr 04:06:33 04:10:40 34° 263° (W) 04:14:50
NO-84 24 Apr 04:15:49 04:18:22 29° 226° (SW) 04:20:54 435.350 FM
PCSat 24 Apr 04:20:19 04:25:21 38° 310° (NW) 04:30:24 145.827
ITUPSAT 1 24 Apr 04:26:40 04:28:27 12° 271° (W) 04:30:15 437.325
KKS-1 24 Apr 04:40:50 04:45:18 75° 257° (WSW) 04:49:48 437.445
YUBILEINY 24 Apr 04:41:45 04:50:17 65° 92° (E) 04:58:52 435.215
CUBESAT XI-V 24 Apr 04:48:25 04:53:02 72° 259° (WSW) 04:57:43 437.345
AO-7 24 Apr 05:07:53 05:16:09 74° 293° (WNW) 05:24:26 .
ITAMSAT 1 24 Apr 05:09:44 05:14:25 36° 293° (WNW) 05:19:06 435.822/435.867
STARS 24 Apr 05:21:25 05:25:47 62° 258° (WSW) 05:30:12 437.465
STRAND 1 24 Apr 05:49:07 05:51:53 15° 59° (ENE) 05:54:38 437.568
XW-2B 24 Apr 05:49:18 05:50:07 11° 90° (E) 05:50:56 145.730 - 145.750
M-CUBED/EXP-1 PRIME 24 Apr 05:52:13 05:55:39 21° 58° (ENE) 05:59:09 437.505
LilacSat-2 24 Apr 05:55:35 05:57:37 14° 91° (E) 05:59:39 437.200
CUTE-I 24 Apr 05:56:21 05:59:30 16° 90° (E) 06:02:40 437.470
XW-2C 24 Apr 05:59:49 06:02:01 15° 92° (E) 06:04:13 145.795 - 145.815
KAITUO 1B 24 Apr 06:05:16 06:07:10 13° 91° (E) 06:09:03 145.475/437.950
DOVE 4 24 Apr 06:08:03 06:12:18 32° 95° (E) 06:16:19 437.250
RS-15 24 Apr 06:21:00 06:29:49 25° 99° (E) 06:38:46 29.354- 29.394
XW-2F 24 Apr 06:26:43 06:30:03 29° 96° (E) 06:33:23 145.980 - 146.000
YUBILEINY 24 Apr 06:40:23 06:47:44 30° 294° (WNW) 06:55:08 435.215
NUDT-PHONESAT 24 Apr 06:47:20 06:50:51 41° 99° (E) 06:54:23 437.300
SO-50 24 Apr 07:00:06 07:04:25 41° 118° (ESE) 07:08:43 436.795
AO-7 24 Apr 07:02:16 07:07:35 19° 313° (NW) 07:12:56 .
CUTE 1.7 + AOD 2 24 Apr 07:10:19 07:12:32 14° 90° (E) 07:14:44 437.475
XW-2D 24 Apr 07:14:02 07:17:49 68° 284° (WNW) 07:21:36 145.860 - 145.880
XW-2B 24 Apr 07:20:55 07:24:40 58° 285° (WNW) 07:28:24 145.730 - 145.750
M-CUBED/EXP-1 PRIME 24 Apr 07:25:14 07:29:42 51° 255° (WSW) 07:34:16 437.505
STRAND 1 24 Apr 07:25:17 07:30:23 81° 255° (WSW) 07:35:32 437.568
HO-68 24 Apr 07:27:07 07:33:17 30° 94° (E) 07:39:24 435.675
LilacSat-2 24 Apr 07:28:27 07:32:08 44° 287° (WNW) 07:35:47 437.200
XW-2C 24 Apr 07:32:48 07:36:24 41° 288° (WNW) 07:40:00 145.795 - 145.815
CUTE-I 24 Apr 07:34:47 07:40:04 70° 287° (WNW) 07:45:20 437.470
SEEDS 24 Apr 07:35:36 07:38:24 17° 91° (E) 07:41:11 437.485
KAITUO 1B 24 Apr 07:37:48 07:41:25 44° 287° (WNW) 07:45:01 145.475/437.950
XW-2A 24 Apr 07:44:21 07:47:19 28° 97° (E) 07:50:16 145.665 - 145.685
CUBEBUG 2 24 Apr 07:44:40 07:46:57 14° 91° (E) 07:49:13 437.445
DOVE 4 24 Apr 07:45:54 07:49:53 27° 294° (WNW) 07:53:39 437.250
XW-2F 24 Apr 08:01:08 08:04:02 21° 292° (WNW) 08:06:57 145.980 - 146.000
NUDT-PHONESAT 24 Apr 08:22:17 08:24:26 15° 295° (WNW) 08:26:36 437.300
PRISM 24 Apr 08:22:22 08:24:32 14° 62° (ENE) 08:26:42 437.425
RS-15 24 Apr 08:28:26 08:40:32 87° 122° (ESE) 08:53:00 29.354- 29.394
ZACube-1 24 Apr 08:39:16 08:42:25 20° 93° (E) 08:45:35 437.345
SO-50 24 Apr 08:41:00 08:45:00 29° 316° (NW) 08:48:59 436.795
CUTE 1.7 + AOD 2 24 Apr 08:44:30 08:48:42 56° 287° (WNW) 08:52:54 437.475
AO-73 24 Apr 08:47:45 08:51:05 23° 94° (E) 08:54:28 145.935
AAUSAT CUBESAT 2 24 Apr 08:51:22 08:55:30 54° 100° (E) 08:59:36 437.432
Tancredo 1 24 Apr 08:55:51 08:58:20 22° 137° (SE) 09:00:52 437.200
ISS 24 Apr 08:55:58 08:58:20 19° 134° (SE) 09:00:42 437.550
Oscar 11 24 Apr 09:06:39 09:10:31 30° 96° (E) 09:14:22 .
SEEDS 24 Apr 09:10:14 09:14:18 45° 288° (WNW) 09:18:21 437.485
UWE-3 24 Apr 09:12:38 09:16:49 82° 100° (E) 09:21:03 435.000/436.395/437.385
HO-68 24 Apr 09:14:20 09:21:20 57° 293° (WNW) 09:28:19 435.675
TIGRISAT 24 Apr 09:15:39 09:19:23 28° 68° (ENE) 09:23:05 435.000
XW-2A 24 Apr 09:17:42 09:19:52 16° 293° (WNW) 09:22:01 145.665 - 145.685
CUTE-I 24 Apr 09:17:58 09:19:09 11° 306° (NW) 09:20:19 437.470
CUBEBUG 2 24 Apr 09:19:51 09:23:52 50° 287° (WNW) 09:27:54 437.445
FO-29 24 Apr 09:26:53 09:32:42 39° 68° (ENE) 09:37:57 435.910
UNISAT 6 24 Apr 09:35:24 09:39:39 48° 72° (ENE) 09:43:49 437.425
PCSat 24 Apr 09:42:31 09:43:19 10° 28° (NNE) 09:44:07 145.827
OBJECT BX 24 Apr 09:51:32 09:54:12 19° 94° (E) 09:56:51 145.990 - 145.960
PRISM 24 Apr 09:55:14 09:59:19 59° 259° (W) 10:03:28 437.425
O/OREOS (USA 219) 24 Apr 09:58:24 10:01:09 16° 99° (E) 10:03:55 437.305
DELFI C3 24 Apr 10:01:34 10:05:16 34° 97° (E) 10:08:56 145.870
ZACube-1 24 Apr 10:14:57 10:18:48 36° 289° (WNW) 10:22:41 437.345
AO-73 24 Apr 10:23:38 10:27:22 32° 290° (WNW) 10:31:10 145.935
POLYITAN 1 24 Apr 10:24:17 10:26:17 13° 62° (ENE) 10:28:17 437.675
AAUSAT CUBESAT 2 24 Apr 10:28:07 10:30:31 15° 297° (WNW) 10:32:54 437.432
QB50P2 24 Apr 10:29:59 10:32:38 16° 63° (ENE) 10:35:16 145.880/145.840
Tancredo 1 24 Apr 10:31:05 10:34:06 48° 333° (NNW) 10:37:08 437.200
ISS 24 Apr 10:31:19 10:34:32 60° 331° (NNW) 10:37:46 437.550
AIST 2D 24 Apr 10:37:09 10:40:02 25° 70° (ENE) 10:42:55 435.315
Oscar 11 24 Apr 10:42:56 10:46:33 26° 293° (WNW) 10:50:08 .
RS-15 24 Apr 10:43:29 10:54:41 39° 329° (NNW) 11:06:03 29.354- 29.394
UWE-3 24 Apr 10:52:08 10:52:39 10° 300° (WNW) 10:53:11 435.000/436.395/437.385
TIGRISAT 24 Apr 10:52:13 10:56:01 28° 264° (W) 10:59:47 435.000
NANOSAT C BR1 24 Apr 10:53:55 10:57:18 24° 67° (ENE) 11:00:41 145.865
LO-87 24 Apr 11:04:48 11:07:25 19° 94° (E) 11:10:00 145.935 - 145.965
HO-68 24 Apr 11:04:49 11:07:33 13° 313° (NW) 11:10:18 435.675
FO-29 24 Apr 11:11:59 11:17:48 34° 263° (W) 11:23:04 435.910
UNISAT 6 24 Apr 11:13:48 11:16:36 16° 268° (W) 11:19:23 437.425
EO-79 24 Apr 11:19:05 11:23:09 47° 72° (ENE) 11:27:13 145.935-145.965
PCSat 24 Apr 11:23:10 11:28:18 40° 51° (NE) 11:33:23 145.827
DUCHIFAT 1 24 Apr 11:24:31 11:28:31 45° 72° (ENE) 11:32:32 145.980
OBJECT BX 24 Apr 11:24:43 11:27:56 29° 290° (WNW) 11:31:07 145.990 - 145.960
O/OREOS (USA 219) 24 Apr 11:35:34 11:40:04 56° 297° (WNW) 11:44:37 437.305
DELFI C3 24 Apr 11:36:52 11:39:50 20° 294° (WNW) 11:42:46 145.870
ESTCUBE 1 24 Apr 11:40:06 11:44:06 29° 96° (E) 11:48:04 437.505/2401.250
Oscar 19 24 Apr 11:53:00 11:55:49 15° 58° (ENE) 11:58:39 437.125/150
SPROUT 24 Apr 11:55:33 11:56:14 10° 88° (E) 11:56:56 437.525
POLYITAN 1 24 Apr 11:57:22 12:01:33 64° 259° (W) 12:05:45 437.675
QB50P2 24 Apr 12:03:56 12:08:02 49° 260° (W) 12:12:10 145.880/145.840
VELOX 1 24 Apr 12:06:21 12:09:03 16° 91° (E) 12:11:44 145.980
Tancredo 1 24 Apr 12:08:11 12:10:33 20° 353° (N) 12:12:56 437.200
ISS 24 Apr 12:08:52 12:11:29 22° 351° (N) 12:14:06 437.550
AIST 2D 24 Apr 12:10:39 12:13:14 20° 266° (W) 12:15:50 435.315
NANOSAT C BR1 24 Apr 12:29:06 12:32:52 31° 263° (W) 12:36:39 145.865
AO-7 24 Apr 12:31:45 12:33:20 11° 37° (NE) 12:34:56 .
BUGSAT 1 24 Apr 12:37:20 12:41:30 86° 253° (WSW) 12:45:39 437.445
LO-87 24 Apr 12:37:48 12:40:53 27° 290° (WNW) 12:43:56 145.935 - 145.965
AO-85 24 Apr 12:41:08 12:44:30 22° 114° (ESE) 12:47:44 145.980
EO-79 24 Apr 12:56:35 12:59:10 16° 268° (W) 13:01:45 145.935-145.965
DUCHIFAT 1 24 Apr 13:01:44 13:04:25 16° 268° (W) 13:07:07 145.980
RS-15 24 Apr 13:01:50 13:11:56 27° 3° (N) 13:21:53 29.354- 29.394
DX 1 24 Apr 13:06:24 13:10:03 25° 95° (E) 13:13:41 434.975-435.025
PCSat 24 Apr 13:06:47 13:11:36 33° 250° (WSW) 13:16:24 145.827
Gurwin Techsat 1B 24 Apr 13:09:35 13:14:31 41° 68° (ENE) 13:19:29 435.225
ESTCUBE 1 24 Apr 13:16:54 13:20:50 29° 293° (WNW) 13:24:45 437.505/2401.250
SPROUT 24 Apr 13:28:23 13:32:38 73° 286° (WNW) 13:36:51 437.525
50 SAT 24 Apr 13:29:03 13:32:33 78° 102° (ESE) 13:36:02 437.505
Oscar 19 24 Apr 13:29:18 13:34:27 82° 256° (WSW) 13:39:40 437.125/150
VELOX 1 24 Apr 13:41:29 13:45:49 52° 288° (WNW) 13:50:06 145.980
Tancredo 1 24 Apr 13:44:38 13:47:13 23° 13° (NNE) 13:49:48 437.200
ISS 24 Apr 13:46:02 13:48:43 23° 11° (NNE) 13:51:23 437.550
SO-50 24 Apr 13:51:18 13:52:50 11° 30° (NNE) 13:54:21 436.795
UKube-1 24 Apr 14:14:28 14:18:49 85° 287° (WNW) 14:23:07 .
AO-7 24 Apr 14:16:18 14:23:53 42° 59° (ENE) 14:31:29 .
AO-85 24 Apr 14:20:44 14:24:42 38° 310° (NW) 14:28:30 145.980
DX 1 24 Apr 14:42:23 14:46:15 31° 292° (WNW) 14:50:04 434.975-435.025
BEESAT 2 24 Apr 14:42:33 14:45:55 27° 115° (ESE) 14:49:21 435.950
ITUPSAT 1 24 Apr 14:45:28 14:48:40 18° 92° (E) 14:51:51 437.325
BEESAT 3 24 Apr 14:49:00 14:52:56 84° 120° (ESE) 14:56:57 437.485
ITAMSAT 1 24 Apr 14:49:25 14:54:27 54° 71° (ENE) 14:59:31 435.822/435.867
Gurwin Techsat 1B 24 Apr 14:50:06 14:54:34 27° 265° (W) 14:59:05 435.225
YUBILEINY 24 Apr 14:50:24 14:58:12 35° 69° (ENE) 15:06:00 435.215
RS-15 24 Apr 15:16:59 15:28:43 45° 37° (NE) 15:39:58 29.354- 29.394
Tancredo 1 24 Apr 15:20:21 15:23:28 88° 51° (NE) 15:26:34 437.200
ISS 24 Apr 15:22:20 15:25:36 74° 32° (NNE) 15:28:51 437.550
SO-50 24 Apr 15:29:54 15:34:20 53° 51° (NE) 15:38:43 436.795
BEESAT 24 Apr 15:43:10 15:47:56 66° 103° (ESE) 15:52:40 436.000
MOZHAYETS 4 24 Apr 15:59:31 16:03:59 48° 99° (E) 16:08:27
AO-7 24 Apr 16:08:34 16:16:31 49° 259° (W) 16:24:31 .
BEESAT 2 24 Apr 16:20:01 16:23:36 31° 313° (NW) 16:27:14 435.950
ITUPSAT 1 24 Apr 16:22:09 16:26:48 53° 289° (WNW) 16:31:27 437.325
BEESAT 3 24 Apr 16:28:51 16:31:05 14° 323° (NW) 16:33:21 437.485
ITAMSAT 1 24 Apr 16:30:29 16:34:14 20° 268° (W) 16:38:01 435.822/435.867
KKS-1 24 Apr 16:31:18 16:34:25 19° 93° (E) 16:37:31 437.445
CUBESAT XI-V 24 Apr 16:43:58 16:47:54 26° 94° (E) 16:51:50 437.345
YUBILEINY 24 Apr 16:46:55 16:55:24 57° 270° (W) 17:03:54 435.215
Tancredo 1 24 Apr 16:57:50 16:58:57 11° 229° (SW) 17:00:03 437.200
ISS 24 Apr 16:59:44 17:01:42 15° 227° (SW) 17:03:40 437.550
XW-2F 24 Apr 17:09:35 17:12:05 17° 66° (ENE) 17:14:36 145.980 - 146.000
STARS 24 Apr 17:10:03 17:13:20 21° 94° (E) 17:16:37 437.465
SO-50 24 Apr 17:11:14 17:14:24 19° 249° (WSW) 17:17:34 436.795
DOVE 4 24 Apr 17:13:27 17:18:26 42° 70° (ENE) 17:23:20 437.250
CUTE-I 24 Apr 17:18:50 17:23:28 31° 65° (ENE) 17:28:06 437.470
BEESAT 24 Apr 17:22:20 17:25:10 16° 300° (WNW) 17:28:00 436.000
NUDT-PHONESAT 24 Apr 17:28:15 17:31:11 23° 68° (ENE) 17:34:06 437.300
RS-15 24 Apr 17:29:58 17:42:05 70° 243° (WSW) 17:53:37 29.354- 29.394
MOZHAYETS 4 24 Apr 17:37:32 17:40:47 19° 296° (WNW) 17:44:03
XW-2D 24 Apr 17:56:08 17:59:50 66° 75° (ENE) 18:03:34 145.860 - 145.880
HO-68 24 Apr 17:57:48 18:03:32 27° 57° (ENE) 18:09:17 435.675
XW-2B 24 Apr 18:02:58 18:06:42 78° 76° (ENE) 18:10:28 145.730 - 145.750
CUTE 1.7 + AOD 2 24 Apr 18:05:04 18:06:48 12° 61° (ENE) 18:08:32 437.475
KKS-1 24 Apr 18:06:58 18:11:11 44° 290° (WNW) 18:15:23 437.445
LilacSat-2 24 Apr 18:11:02 18:14:47 79° 258° (WSW) 18:18:34 437.200
XW-2C 24 Apr 18:14:47 18:18:30 74° 259° (W) 18:22:16 145.795 - 145.815
XW-2A 24 Apr 18:18:12 18:19:51 13° 65° (ENE) 18:21:29 145.665 - 145.685
KAITUO 1B 24 Apr 18:18:33 18:22:14 84° 257° (WSW) 18:25:57 145.475/437.950
CUBESAT XI-V 24 Apr 18:21:02 18:25:19 35° 291° (WNW) 18:29:36 437.345
SEEDS 24 Apr 18:29:10 18:31:28 15° 63° (ENE) 18:33:47 437.485
XW-2F 24 Apr 18:42:34 18:45:58 34° 263° (W) 18:49:25 145.980 - 146.000
CUBEBUG 2 24 Apr 18:44:11 18:46:47 16° 64° (ENE) 18:49:22 437.445
STARS 24 Apr 18:45:45 18:49:49 38° 290° (WNW) 18:53:51 437.465
DOVE 4 24 Apr 18:51:43 18:56:11 27° 267° (W) 19:00:38 437.250
CUTE-I 24 Apr 18:58:26 19:03:23 38° 263° (W) 19:08:21 437.470
NUDT-PHONESAT 24 Apr 19:01:58 19:05:00 24° 265° (W) 19:08:03 437.300
NO-84 24 Apr 19:34:37 19:36:56 16° 129° (SE) 19:39:07 435.350 FM
STRAND 1 24 Apr 19:34:43 19:39:15 31° 96° (E) 19:43:43 437.568
ZACube-1 24 Apr 19:36:39 19:39:39 19° 66° (ENE) 19:42:37 437.345
CUTE 1.7 + AOD 2 24 Apr 19:37:52 19:42:03 69° 258° (WSW) 19:46:18 437.475
AAUSAT CUBESAT 2 24 Apr 19:42:26 19:46:19 41° 71° (ENE) 19:50:15 437.432
HO-68 24 Apr 19:43:36 19:50:42 67° 257° (WSW) 19:57:52 435.675
AO-73 24 Apr 19:44:47 19:47:55 21° 66° (ENE) 19:51:03 145.935
RS-15 24 Apr 19:45:34 19:52:04 17° 265° (W) 19:58:26 29.354- 29.394
XW-2A 24 Apr 19:49:08 19:52:17 37° 262° (W) 19:55:26 145.665 - 145.685
SEEDS 24 Apr 20:02:35 20:06:41 56° 260° (W) 20:10:50 437.485
Oscar 11 24 Apr 20:02:41 20:06:20 28° 68° (ENE) 20:10:01 .
O/OREOS (USA 219) 24 Apr 20:05:09 20:09:28 38° 60° (ENE) 20:13:43 437.305
UWE-3 24 Apr 20:10:30 20:14:47 76° 76° (ENE) 20:19:00 435.000/436.395/437.385
CUBEBUG 2 24 Apr 20:18:43 20:23:01 53° 260° (W) 20:27:14 437.445
OBJECT BX 24 Apr 20:32:20 20:33:23 11° 63° (ENE) 20:34:27 145.990 - 145.960
M-CUBED/EXP-1 PRIME 24 Apr 20:37:22 20:41:41 81° 290° (WNW) 20:45:39 437.505
DELFI C3 24 Apr 20:48:22 20:51:36 24° 68° (ENE) 20:54:52 145.870
